[[{"header":{"parameterUnit":"m.s-1","parameterCategory":1,"la1":30.2991,"la2":30.254,"lo1":-89.0895,"lo2":-89.0444,"dy":0.0017,"dx":0.0017,"nx":28,"ny":28,"refTime":"2023-09-20T21:00:00:Z","depth":0,"parameterNumber":2,"parameterNumberName":"U-component_of_WINDS"},"data":[0,0,0,0,0,0,0,0,0,0,0,0,0,0,0,0,0,0,0,0,0,0,0,0,0,0,0,0,0,0,0,0,0,0,0,0,0,0,0,0,0,0,0,0,0,0,0,0,0,0,0,0,0,0,0,0,0,0,-4.9835,-4.9835,0,-4.9775,-4.9775,-4.9774,-4.9641,-4.9638,-4.9636,-4.9633,-4.9575,-4.9576,-4.9577,0,0,0,0,0,0,0,0,0,0,0,0,0,-4.9839,-4.984,-4.9835,-4.9834,-4.9834,-4.9775,-4.9775,-4.9774,-4.9642,-4.9638,-4.9635,-4.9632,-4.9575,-4.9576,-4.9577,0,0,0,0,0,0,0,0,0,0,0,0,0,-4.9815,-4.984,-4.9835,-4.9761,-4.9753,-4.9776,-4.9775,-4.9774,-4.9642,-4.9638,-4.9634,-4.963,-4.9575,-4.9576,-4.9577,-4.9668,0,0,-4.9582,-4.9583,0,0,0,0,0,0,0,0,-4.9816,-4.9815,-4.9772,-4.9766,-4.9758,-4.9711,-4.9755,-4.9739,-4.9643,-4.9685,-4.9633,-4.9628,-4.9624,-4.9621,-4.9619,-4.9666,-4.9663,-4.9582,-4.9583,-4.9584,-4.9584,0,0,0,0,0,0,0,-4.9818,-4.9817,-4.9811,-4.9772,-4.9763,-4.9732,-4.9724,-4.9751,-4.9678,-4.9681,-4.9671,-4.9666,-4.9619,-4.9618,-4.9617,-4.9662,-4.9582,-4.9583,-4.9584,-4.9585,-4.9782,-4.9787,0,0,0,0,0,0,-4.983,-4.9819,-4.9813,-4.981,-4.9777,-4.9735,-4.9726,-4.9731,-4.9677,-4.9665,-4.9669,-4.966,-4.9617,-4.9615,-4.9614,-4.9717,-4.9584,-4.9585,-4.9586,-4.9778,-4.9783,-4.9788,0,0,0,0,0,0,-4.9831,-4.9831,-4.9816,-4.9812,-4.9807,-4.9739,-4.9745,-4.9732,-4.973,-4.9669,-4.9655,-4.9681,-4.9614,-4.9612,-4.9656,-4.9714,-4.9586,-4.9587,-4.9773,-4.978,-4.9786,-4.9925,0,0,0,0,0,0,-4.9831,-4.9832,-4.9864,-4.9813,-4.9808,-4.9858,-4.9749,-4.9733,-4.9732,-4.9719,-4.9676,-4.9665,-4.9611,-4.9655,-4.9658,-4.9713,-4.9588,-4.9767,-4.9776,-4.9784,-4.9915,-4.9935,-4.9953,0,0,0,0,0,-4.9832,-4.9906,-4.9867,-4.9867,-4.9847,-4.9861,-4.9858,-4.9793,-4.9738,-4.977,-4.9732,-4.9666,-4.9707,-4.966,-4.9662,-4.972,-4.9763,-4.9774,-4.9783,-4.9906,-4.9931,-4.9952,0,0,0,0,0,0,-4.9966,-4.9898,-4.9853,-4.9913,-4.9894,-4.9839,-4.9878,-4.9822,-4.9819,-4.9807,-4.9728,-4.9719,-4.9774,-4.9751,-4.97,-4.9806,-4.9725,-4.9736,-4.9818,-4.9841,-4.986,-4.9864,-4.959,0,0,0,0,0,-5.0003,-5.0019,-4.9959,-5.0018,-5.001,-4.9947,-4.995,-4.9902,-4.9879,-4.9871,-4.9834,-4.9816,-4.9825,-4.9832,-4.9836,-4.9912,-4.9901,-4.9952,-4.9972,-4.9987,-4.9997,-5.0036,-5.0059,-4.982,-4.982,-4.982,0,0,-5.0079,-5.0043,-5.0058,-5.0044,-5.0023,-5.0043,-4.994,-4.9965,-4.9979,-4.9874,-4.9913,-4.9887,-4.9861,-4.9922,-4.9946,-4.9904,-5.0061,-5.0,-5.0013,-5.0014,-5.0049,-5.0071,-5.0091,-4.9827,-4.9826,-4.9825,0,0,-5.0226,-5.0201,-5.0247,-5.0229,-5.0199,-5.0156,-5.0168,-5.0122,-5.01,-5.0138,-5.006,-5.0077,-5.0094,-5.0079,-5.0073,-5.0219,-5.0159,-5.0223,-5.0322,-5.0361,-5.038,-5.0396,-5.0448,-5.0467,-5.0233,-5.0234,-5.0234,0,-5.0324,-5.0348,-5.0278,-5.0308,-5.0305,-5.0211,-5.0259,-5.0245,-5.0219,-5.0219,-5.0173,-5.0192,-5.0169,-5.0224,-5.026,-5.0259,-5.0271,-5.0226,-5.0382,-5.0398,-5.0412,-5.0461,-5.0481,-5.0241,-5.0241,-5.024,-5.0239,0,-5.0471,-5.049,-5.0531,-5.0507,-5.0509,-5.0548,-5.0485,-5.0495,-5.0448,-5.0412,-5.0453,-5.0421,-5.0418,-5.0428,-5.0383,-5.0479,-5.0453,-5.0396,-5.0313,-5.0444,-5.0488,-5.0506,-5.0253,-5.025,-5.0248,-5.0246,0,0,-5.0698,-5.0637,-5.0653,-5.0642,-5.0603,-5.0617,-5.0653,-5.065,-5.066,-5.0647,-5.0675,-5.0693,-5.064,-5.0634,-5.0587,-5.0621,-5.0739,-5.0559,-5.0558,-5.0594,-5.0843,-5.0886,-5.0908,-5.07,-5.0704,-5.0706,-5.0845,0,-5.0835,-5.089,-5.083,-5.0899,-5.0916,-5.0829,-5.0861,-5.0842,-5.081,-5.0821,-5.0785,-5.0799,-5.0728,-5.0724,-5.0755,-5.0718,-5.0788,-5.0708,-5.0727,-5.0728,-5.0734,-5.0931,-5.0976,-5.1108,-5.0862,-5.0865,-5.0867,0,-5.1002,-5.0995,-5.1066,-5.1025,-5.103,-5.1059,-5.1051,-5.1063,-5.1041,-5.1015,-5.1011,-5.0954,-5.0988,-5.0909,-5.0955,-5.0902,-5.0907,-5.0891,-5.0894,-5.0892,-5.0804,-5.0934,-5.1149,-5.1169,-5.0894,-5.0892,-5.089,0,-5.116,-5.1169,-5.1213,-5.1206,-5.1159,-5.1182,-5.1164,-5.1137,-5.114,-5.1135,-5.1136,-5.1136,-5.1135,-5.1137,-5.1082,-5.103,-5.1136,-5.1052,-5.1116,-5.1118,-5.114,-5.1139,-5.1359,-5.1147,-5.1146,-5.1146,-5.1145,0,-5.1318,-5.1365,-5.1283,-5.131,-5.136,-5.1292,-5.1344,-5.1317,-5.1295,-5.1316,-5.1243,-5.1265,-5.1192,-5.1206,-5.1165,-5.121,-5.121,-5.1191,-5.1179,-5.1197,-5.1199,-5.1197,-5.1186,-5.1151,-5.115,-5.1149,-5.1148,0,-5.1502,-5.1449,-5.1491,-5.1444,-5.1433,-5.1473,-5.1433,-5.1457,-5.1421,-5.1449,-5.1451,-5.1395,-5.1409,-5.1355,-5.136,-5.1332,-5.1399,-5.1373,-5.1406,-5.1398,-5.1464,-5.1458,-5.1688,-5.1715,-5.1488,-5.149,-5.1492,0,-5.1605,-5.1639,-5.1596,-5.1605,-5.159,-5.1605,-5.1608,-5.1543,-5.1549,-5.1528,-5.1555,-5.1562,-5.1565,-5.1591,-5.1552,-5.1556,-5.1528,-5.1609,-5.1528,-5.1545,-5.1528,-5.1527,-5.153,-5.1625,-5.1628,-5.163,-5.1632,0,-5.1795,-5.1768,-5.1773,-5.1771,-5.1776,-5.1771,-5.1761,-5.1773,-5.1704,-5.1715,-5.1727,-5.173,-5.1735,-5.1744,-5.174,-5.1723,-5.1667,-5.1658,-5.1673,-5.169,-5.1708,-5.1699,-5.1451,-5.1652,-5.165,-5.1649,-5.1648,-5.1647,-5.1941,-5.1967,-5.1942,-5.1951,-5.1937,-5.193,-5.195,-5.1918,-5.1927,-5.1925,-5.1888,-5.1909,-5.1888,-5.1877,-5.1866,-5.1883,-5.1845,-5.1867,-5.1872,-5.1878,-5.1889,-5.1707,-5.1882,-5.1881,-5.1881,-5.188,-5.188,0,-5.2126,-5.2106,-5.2115,-5.2104,-5.2112,-5.2059,-5.2046,-5.2057,-5.2075,-5.2061,-5.2065,-5.2081,-5.2091,-5.2053,-5.2057,-5.2078,-5.2052,-5.2081,-5.2078,-5.2075,-5.1923,-5.1909,-5.2102,-5.2102,-5.2102,-5.2102,-5.2102,-5.2102,-5.2223,-5.2265,-5.2235,-5.2271,-5.225,-5.2269,-5.2267,-5.2261,-5.2249,-5.227,-5.2277,-5.2253,-5.2229,-5.2232,-5.2239,-5.2227,-5.2232,-5.227,-5.225,-5.2108,-5.2086,-5.2065,-5.2052,-5.2272,-5.2272,-5.2401,-5.2402,-5.2403]},{"header":{"parameterUnit":"m.s-1","parameterCategory":1,"la1":30.2991,"la2":30.254,"lo1":-89.0895,"lo2":-89.0444,"dy":0.0017,"dx":0.0017,"nx":28,"ny":28,"refTime":"2023-09-20T21:00:00:Z","depth":0,"parameterNumber":3,"parameterNumberName":"V-component_of_WINDS"},"data":[0,0,0,0,0,0,0,0,0,0,0,0,0,0,0,0,0,0,0,0,0,0,0,0,0,0,0,0,0,0,0,0,0,0,0,0,0,0,0,0,0,0,0,0,0,0,0,0,0,0,0,0,0,0,0,0,0,0,0.657,0.657,0,0.6522,0.6521,0.6521,0.6553,0.6554,0.6556,0.6557,0.6503,0.65,0.6497,0,0,0,0,0,0,0,0,0,0,0,0,0,0.6687,0.6685,0.657,0.657,0.6569,0.6522,0.6521,0.652,0.6553,0.6555,0.6556,0.6558,0.6503,0.65,0.6497,0,0,0,0,0,0,0,0,0,0,0,0,0,0.6637,0.6684,0.657,0.658,0.658,0.6522,0.6521,0.652,0.6552,0.6555,0.6557,0.6559,0.6505,0.65,0.6496,0.6425,0,0,0.6483,0.6481,0,0,0,0,0,0,0,0,0.664,0.6633,0.6579,0.6579,0.6579,0.6546,0.6542,0.6488,0.6552,0.6563,0.6557,0.656,0.6515,0.651,0.6496,0.6422,0.642,0.6483,0.648,0.6478,0.6477,0,0,0,0,0,0,0,0.6643,0.6635,0.6551,0.6578,0.6578,0.6585,0.658,0.6532,0.6526,0.6562,0.6564,0.6558,0.6515,0.65,0.6495,0.6419,0.6483,0.6479,0.6476,0.6475,0.6285,0.6282,0,0,0,0,0,0,0.6647,0.6638,0.6552,0.6549,0.6616,0.6581,0.6576,0.6554,0.6527,0.6525,0.6556,0.656,0.6506,0.6499,0.6493,0.6407,0.6478,0.6474,0.6472,0.6287,0.6284,0.6282,0,0,0,0,0,0,0.6649,0.6639,0.6554,0.6594,0.6584,0.6577,0.6552,0.6552,0.6536,0.6523,0.6522,0.6542,0.6507,0.6499,0.6442,0.6405,0.6472,0.6468,0.629,0.6286,0.6283,0.6235,0,0,0,0,0,0,0.6652,0.6639,0.6613,0.6593,0.6582,0.6505,0.655,0.6549,0.653,0.6534,0.6509,0.6507,0.6508,0.6448,0.6438,0.6401,0.6465,0.6293,0.6288,0.6284,0.624,0.623,0.6222,0,0,0,0,0,0.6656,0.66,0.6611,0.6601,0.6549,0.6503,0.6496,0.6501,0.6527,0.6499,0.6491,0.6508,0.6412,0.6442,0.643,0.6392,0.6296,0.629,0.6284,0.6244,0.6232,0.6222,0,0,0,0,0,0,0.6613,0.6598,0.661,0.6546,0.6526,0.6509,0.6474,0.6488,0.6459,0.6463,0.6469,0.6463,0.6403,0.6392,0.6426,0.6321,0.6358,0.6349,0.633,0.6319,0.631,0.6313,0.6462,0,0,0,0,0,0.6597,0.6562,0.655,0.6495,0.6484,0.6481,0.6461,0.6467,0.6445,0.6436,0.6424,0.6401,0.6366,0.6342,0.6309,0.6239,0.6234,0.6207,0.6198,0.6191,0.6183,0.6145,0.6132,0.6263,0.6263,0.6263,0,0,0.6561,0.6549,0.6526,0.6486,0.6471,0.6434,0.6473,0.6432,0.6405,0.643,0.6375,0.6366,0.634,0.6277,0.6248,0.6265,0.6146,0.6184,0.6178,0.6174,0.6138,0.6125,0.6114,0.6259,0.626,0.6261,0,0,0.6478,0.6465,0.6418,0.6403,0.638,0.6379,0.6368,0.6349,0.6344,0.629,0.6308,0.6275,0.6214,0.6195,0.6178,0.609,0.6103,0.6079,0.6031,0.5994,0.5983,0.5974,0.5941,0.593,0.6071,0.6071,0.6071,0,0.6436,0.6382,0.6391,0.6349,0.6331,0.6354,0.6306,0.629,0.6257,0.6243,0.6264,0.6189,0.6174,0.6106,0.6085,0.607,0.6057,0.608,0.5984,0.5975,0.5967,0.5936,0.5923,0.6068,0.6069,0.6069,0.6069,0,0.6331,0.6294,0.6258,0.6228,0.6206,0.6161,0.6162,0.6138,0.6146,0.6142,0.6087,0.607,0.6034,0.6019,0.6025,0.5952,0.5963,0.5984,0.602,0.5951,0.5922,0.591,0.6064,0.6065,0.6066,0.6067,0,0,0.6217,0.6194,0.6181,0.6167,0.6145,0.6116,0.6072,0.6039,0.6017,0.5995,0.5957,0.5906,0.5926,0.5906,0.5911,0.5879,0.5809,0.5904,0.5903,0.5885,0.5725,0.5708,0.5695,0.5819,0.5817,0.5815,0.5727,0,0.6131,0.6056,0.6063,0.5991,0.5956,0.5979,0.5941,0.5922,0.5918,0.5887,0.5881,0.5845,0.5874,0.5863,0.5832,0.5824,0.5776,0.583,0.5782,0.578,0.5786,0.5679,0.5661,0.5579,0.5716,0.5714,0.5712,0,0.602,0.5996,0.592,0.5904,0.589,0.5855,0.5826,0.5796,0.5776,0.5775,0.5754,0.5765,0.572,0.5759,0.5696,0.5732,0.5713,0.5707,0.5703,0.5697,0.5741,0.5669,0.5553,0.554,0.5695,0.5696,0.5697,0,0.5943,0.5891,0.5839,0.5827,0.5807,0.5783,0.5773,0.5755,0.5735,0.5709,0.5695,0.5664,0.5646,0.5621,0.5622,0.5651,0.5558,0.5597,0.5554,0.5554,0.5532,0.5533,0.5409,0.5522,0.5523,0.5523,0.5523,0,0.5845,0.5798,0.5804,0.5772,0.5719,0.5729,0.5676,0.5669,0.5654,0.562,0.5638,0.5605,0.5611,0.5578,0.5579,0.5526,0.5518,0.5515,0.5515,0.5512,0.5512,0.5498,0.5503,0.552,0.552,0.5521,0.5522,0,0.5749,0.5751,0.5696,0.5683,0.5679,0.564,0.5629,0.5598,0.5596,0.5553,0.5543,0.5539,0.5502,0.5502,0.5459,0.546,0.5394,0.5402,0.5401,0.5402,0.5359,0.5363,0.5221,0.5202,0.5329,0.5327,0.5326,0,0.5685,0.565,0.5634,0.5613,0.5603,0.5569,0.5549,0.5557,0.5535,0.551,0.5482,0.5447,0.5419,0.5358,0.535,0.5317,0.5323,0.5276,0.5318,0.5316,0.5321,0.5322,0.5318,0.5267,0.5265,0.5264,0.5263,0,0.5572,0.5576,0.5547,0.5519,0.5495,0.5473,0.5452,0.5434,0.544,0.5415,0.5378,0.5356,0.5313,0.5277,0.5246,0.5235,0.5249,0.5251,0.5239,0.5234,0.5235,0.5233,0.5377,0.5253,0.5254,0.5255,0.5256,0.5256,0.549,0.5459,0.5443,0.5411,0.5397,0.5378,0.5348,0.5344,0.5314,0.528,0.5287,0.5245,0.5226,0.5186,0.5172,0.5138,0.5155,0.5138,0.5133,0.5128,0.5123,0.5242,0.5133,0.5133,0.5133,0.5134,0.5134,0,0.5377,0.5368,0.5339,0.531,0.5285,0.5304,0.5282,0.5259,0.5223,0.5205,0.5177,0.5135,0.51,0.5091,0.5058,0.5033,0.5039,0.5024,0.5025,0.5022,0.5111,0.5124,0.5019,0.5019,0.5019,0.502,0.502,0.502,0.5315,0.5264,0.5266,0.5209,0.52,0.5161,0.5147,0.5129,0.5115,0.5067,0.5039,0.5034,0.5019,0.4985,0.4954,0.4952,0.4939,0.492,0.4921,0.5004,0.5015,0.5026,0.5038,0.4918,0.4918,0.4835,0.4834,0.4833]}]]